TimeMDT,TemperatureF,Dew PointF,Humidity,Sea Level PressureIn,VisibilityMPH,Wind Direction,Wind SpeedMPH,Gust SpeedMPH,PrecipitationIn,Events,Conditions,WindDirDegrees,DateUTC
12:03 AM,55.4,26.6,33,30.29,10.0,NNW,15.0,-,N/A,,Clear,340,2012-10-02 06:03:00
12:34 AM,53.6,26.6,35,30.29,10.0,North,11.5,-,N/A,,Clear,360,2012-10-02 06:34:00
12:51 AM,53.6,26.6,35,30.29,10.0,NNW,12.7,-,N/A,,Clear,340,2012-10-02 06:51:00
1:01 AM,53.6,26.6,35,30.29,10.0,NNW,15.0,-,N/A,,Clear,330,2012-10-02 07:01:00
1:22 AM,53.6,28.4,38,30.29,10.0,NW,11.5,-,N/A,,Clear,320,2012-10-02 07:22:00
2:15 AM,48.2,26.6,43,30.30,10.0,NNW,13.8,-,N/A,,Clear,330,2012-10-02 08:15:00
2:35 AM,48.2,26.6,43,30.30,10.0,NNW,13.8,-,N/A,,Clear,330,2012-10-02 08:35:00
2:41 AM,50.0,26.6,40,30.29,10.0,NNW,11.5,-,N/A,,Clear,330,2012-10-02 08:41:00
3:01 AM,53.6,28.4,38,30.29,10.0,NNW,15.0,-,N/A,,Clear,330,2012-10-02 09:01:00
3:34 AM,48.2,26.6,43,30.29,10.0,NW,10.4,-,N/A,,Clear,320,2012-10-02 09:34:00
3:41 AM,46.4,26.6,46,30.29,10.0,NW,10.4,-,N/A,,Clear,310,2012-10-02 09:41:00
4:23 AM,46.4,26.6,46,30.29,10.0,NNE,5.8,-,N/A,,Clear,20,2012-10-02 10:23:00
4:42 AM,44.6,26.6,49,30.29,10.0,NE,4.6,-,N/A,,Clear,40,2012-10-02 10:42:00
5:13 AM,42.8,28.4,57,30.29,10.0,NW,10.4,-,N/A,,Clear,310,2012-10-02 11:13:00
5:22 AM,42.8,28.4,57,30.29,10.0,NW,11.5,-,N/A,,Clear,320,2012-10-02 11:22:00
5:43 AM,42.8,28.4,57,30.29,10.0,North,4.6,-,N/A,,Clear,350,2012-10-02 11:43:00
6:02 AM,42.8,28.4,57,30.29,10.0,NNW,5.8,-,N/A,,Clear,330,2012-10-02 12:02:00
6:25 AM,42.8,26.6,53,30.30,10.0,ENE,4.6,-,N/A,,Clear,60,2012-10-02 12:25:00
6:51 AM,39.2,28.4,65,30.30,10.0,Calm,Calm,-,N/A,,Clear,0,2012-10-02 12:51:00
7:01 AM,41.0,28.4,61,30.30,10.0,South,4.6,-,N/A,,Clear,180,2012-10-02 13:01:00
7:35 AM,39.2,28.4,65,30.31,10.0,North,3.5,-,N/A,,Clear,10,2012-10-02 13:35:00
7:42 AM,41.0,28.4,61,30.31,10.0,NNE,4.6,-,N/A,,Clear,20,2012-10-02 13:42:00
8:13 AM,44.6,28.4,53,30.31,10.0,Calm,Calm,-,N/A,,Clear,0,2012-10-02 14:13:00
8:22 AM,46.4,28.4,50,30.31,10.0,Calm,Calm,-,N/A,,Clear,0,2012-10-02 14:22:00
8:53 AM,48.2,30.2,50,30.31,10.0,Calm,Calm,-,N/A,,Clear,0,2012-10-02 14:53:00
9:15 AM,50.0,30.2,47,30.31,10.0,SSE,3.5,-,N/A,,Clear,160,2012-10-02 15:15:00
9:35 AM,53.6,30.2,41,30.31,10.0,Calm,Calm,-,N/A,,Clear,0,2012-10-02 15:35:00
9:42 AM,53.6,30.2,41,30.31,10.0,South,4.6,-,N/A,,Clear,170,2012-10-02 15:42:00
10:01 AM,55.4,32.0,41,30.31,10.0,SE,4.6,-,N/A,,Clear,140,2012-10-02 16:01:00
10:35 AM,59.0,32.0,36,30.29,10.0,South,8.1,-,N/A,,Clear,170,2012-10-02 16:35:00
10:47 AM,59.0,32.0,36,30.29,10.0,SSE,8.1,-,N/A,,Clear,160,2012-10-02 16:47:00
11:15 AM,60.8,32.0,34,30.28,10.0,SE,9.2,-,N/A,,Clear,140,2012-10-02 17:15:00
11:30 AM,60.8,30.2,31,30.27,10.0,SE,10.4,-,N/A,,Clear,140,2012-10-02 17:30:00
11:41 AM,62.6,30.2,30,30.26,10.0,SSE,9.2,-,N/A,,Clear,150,2012-10-02 17:41:00
12:12 PM,62.6,32.0,32,30.25,10.0,SSE,5.8,-,N/A,,Clear,150,2012-10-02 18:12:00
12:32 PM,64.4,30.2,28,30.24,10.0,SE,8.1,-,N/A,,Clear,140,2012-10-02 18:32:00
12:40 PM,64.4,30.2,28,30.23,10.0,SSE,5.8,-,N/A,,Clear,150,2012-10-02 18:40:00
1:14 PM,68.0,30.2,24,30.21,10.0,SE,6.9,-,N/A,,Clear,140,2012-10-02 19:14:00
1:26 PM,69.8,30.2,23,30.21,10.0,South,9.2,-,N/A,,Clear,170,2012-10-02 19:26:00
1:40 PM,69.8,30.2,23,30.19,10.0,South,5.8,-,N/A,,Clear,170,2012-10-02 19:40:00
2:01 PM,73.4,32.0,22,30.19,10.0,SSE,6.9,-,N/A,,Clear,150,2012-10-02 20:01:00
2:20 PM,73.4,28.4,19,30.17,10.0,SE,5.8,-,N/A,,Clear,140,2012-10-02 20:20:00
2:46 PM,75.2,24.8,15,30.16,10.0,NNW,6.9,-,N/A,,Clear,340,2012-10-02 20:46:00
3:09 PM,77.0,21.2,12,30.15,10.0,NW,8.1,21.9,N/A,,Clear,310,2012-10-02 21:09:00
3:35 PM,77.0,19.4,12,30.14,10.0,WNW,16.1,24.2,N/A,,Clear,300,2012-10-02 21:35:00
3:43 PM,77.0,21.2,12,30.14,10.0,WNW,11.5,24.2,N/A,,Clear,290,2012-10-02 21:43:00
4:13 PM,77.0,19.4,12,30.13,10.0,WNW,17.3,21.9,N/A,,Clear,300,2012-10-02 22:13:00
4:34 PM,77.0,19.4,12,30.13,10.0,WNW,15.0,21.9,N/A,,Clear,300,2012-10-02 22:34:00
4:42 PM,77.0,19.4,12,30.13,10.0,NW,16.1,23.0,N/A,,Clear,320,2012-10-02 22:42:00
5:02 PM,77.0,17.6,11,30.13,10.0,NW,16.1,23.0,N/A,,Clear,310,2012-10-02 23:02:00
5:29 PM,75.2,17.6,11,30.13,10.0,NW,16.1,23.0,N/A,,Clear,320,2012-10-02 23:29:00
5:42 PM,73.4,17.6,12,30.14,10.0,NW,15.0,20.7,N/A,,Clear,310,2012-10-02 23:42:00
6:02 PM,73.4,17.6,12,30.14,10.0,NW,15.0,-,N/A,,Clear,310,2012-10-03 00:02:00
6:23 PM,71.6,17.6,13,30.14,10.0,NW,12.7,-,N/A,,Clear,320,2012-10-03 00:23:00
7:02 PM,62.6,15.8,16,30.15,10.0,NW,11.5,-,N/A,,Clear,310,2012-10-03 01:02:00
7:24 PM,62.6,17.6,18,30.16,10.0,NW,15.0,-,N/A,,Clear,320,2012-10-03 01:24:00
7:54 PM,60.8,17.6,19,30.16,10.0,NW,12.7,-,N/A,,Clear,320,2012-10-03 01:54:00
8:02 PM,60.8,17.6,19,30.16,10.0,NW,12.7,-,N/A,,Clear,320,2012-10-03 02:02:00
8:21 PM,59.0,17.6,20,30.17,10.0,NNW,12.7,16.1,N/A,,Clear,330,2012-10-03 02:21:00
8:49 PM,59.0,15.8,19,30.17,10.0,NNW,12.7,-,N/A,,Clear,340,2012-10-03 02:49:00
9:06 PM,59.0,15.8,19,30.17,10.0,NNW,16.1,21.9,N/A,,Clear,330,2012-10-03 03:06:00
9:26 PM,59.0,15.8,19,30.17,10.0,NNW,18.4,-,N/A,,Clear,330,2012-10-03 03:26:00
9:43 PM,59.0,19.4,22,30.17,10.0,NW,18.4,24.2,N/A,,Clear,320,2012-10-03 03:43:00
10:03 PM,59.0,19.4,22,30.17,10.0,NNW,18.4,-,N/A,,Clear,330,2012-10-03 04:03:00
10:22 PM,55.4,17.6,23,30.19,10.0,NNW,18.4,-,N/A,,Clear,330,2012-10-03 04:22:00
10:43 PM,59.0,17.6,20,30.19,10.0,NNW,12.7,-,N/A,,Clear,330,2012-10-03 04:43:00
11:04 PM,57.2,17.6,21,30.19,10.0,NNW,13.8,-,N/A,,Clear,330,2012-10-03 05:04:00
11:24 PM,57.2,15.8,20,30.19,10.0,NW,15.0,-,N/A,,Clear,320,2012-10-03 05:24:00
11:44 PM,55.4,15.8,21,30.19,10.0,NW,12.7,-,N/A,,Clear,320,2012-10-03 05:44:00